High Desert Yearling Classic - Mcgil Nv. 200 Miles

Station: McGil Nevada - A Race

Distance: 200 Miles    

Release: 16-May-2018 07:00

Weather Release:    Arrival:

Wind at Release:     Wind at Arrival:

Temp at Release: °    Temp at Arrival: °

Lofts: 96

Birds: 394

Clocked: 376

Good Luck to Everyone!
Drops Pos Breeder Pigeon Name Color Sex Ent Arrival Speed To Win Eligible
100 Almosta Loft - WA 47992-AU17-AA BB C 1 10:53:44.00 1505.990 00:09:01 Lost
101 Stephen Brothers - FL 0764-AU17-COM DNCK C 2 10:53:45.00 1505.882 00:09:02 Yes
102 Rebel Wings - UT 0372-AU17-DWI BB C 2 10:53:47.00 1505.668 00:09:04 Yes
103 Powerstroke Loft - UT 0179-IF17-PS BB C 2 10:53:49.00 1505.453 00:09:06 Yes
104 Sam Haslem - UT 7802-AU17-CDR BC H 4 10:53:50.00 1505.346 00:09:07 Yes
105 Frank Locante - WI 17022-AU17-FRLO DCSP C 2 10:53:51.00 1505.238 00:09:08 Yes
106 Carlton Kroese-Crazy Al - CO 5179-AU17-CRAZ BB C 1 10:53:53.00 1505.024 00:09:10 Yes
107 Hammon And Friends - AZ 0595-AU17-DWI BB C 1 10:53:55.00 1504.809 00:09:12 Yes
108 Steve Beier - AZ 0717-AU17-IDA BB C 2 10:53:58.00 1504.488 00:09:15 Yes
109 Woodland Loft - NY 2242-IF17-EMC RC C 2 10:53:59.00 1504.381 00:09:16 Yes
110 A-Lin Loft - ME 14873-US17-IPB BB H 1 10:54:02.00 1504.059 00:09:19 Yes
110 Rich Fox Loft - PA 0857-IF17-LVC BB C 2 10:54:02.00 1504.059 00:09:19 Yes
112 Hammon And Friends - AZ 0416-AU17-DWI BB C 2 10:54:06.00 1503.631 00:09:23 Yes
113 Hammon And Friends - AZ 0567-AU17-DWI BBWF H 3 10:54:07.00 1503.524 00:09:24 Yes
114 Huan Qiu Zhang - NC 1714-IF17-JNC BB C 1 10:54:08.00 1503.417 00:09:25 Yes
115 Baldwin & Tilson - NC 7169-AU17-TENT BB H 4 10:54:11.00 1503.096 00:09:28 Yes
116 Scott / Morrison - UT 1114-AU17-WING BB H 1 10:54:14.00 1502.775 00:09:31 Yes
116 Hammon And Friends - AZ 0422-AU17-DWI SLI C 4 10:54:14.00 1502.775 00:09:31 Yes
118 Sam Haslem - UT 7805-AU17-CDR BB C 5 10:54:17.00 1502.454 00:09:34 Yes
119 Papas Loft - ID 20333-AU17-ARPU BB C 4 10:54:20.00 1502.134 00:09:37 Yes
119 Bert Bruno - UT 79327-AU17-ARPU RC H 2 10:54:20.00 1502.134 00:09:37 Yes
121 Haack Loft - CA 2792-AU17-JEDD MLY C 3 10:54:22.00 1501.920 00:09:39 Yes
121 Huan Qiu Zhang - NC 1740-IF17-JNC BB H 2 10:54:22.00 1501.920 00:09:39 Yes
123 Team Elite - IL 0590-AU17-ELIT BCWF C 2 10:54:24.00 1501.706 00:09:41 Yes
124 Spring Break Race - UT 11348-US17-IPB BB C 1 10:54:25.00 1501.600 00:09:42 Yes
125 Joe Zarachowicz - MD 2241-IF17-CCC BB C 3 10:54:26.00 1501.493 00:09:43 Yes
126 Pigeon Village - ID 0886-AU17-IDA BC H 2 10:54:27.00 1501.386 00:09:44 Yes
127 K/N Loft - HI 40462-AU17-AA BB C 1 10:54:32.00 1500.853 00:09:49 Yes
128 Ganus Family Loft - IN 0939-AU17-GFL BC H 1 10:54:34.00 1500.639 00:09:51 Yes
129 Steve Beier - AZ 0718-AU17-IDA BB H 3 10:54:37.00 1500.320 00:09:54 Yes
129 Ed Kehl - UT 0390-AU17-WFA WGRZ H 3 10:54:37.00 1500.320 00:09:54 Yes
131 King Of The Hill - AZ 0814-AU17-PSC BB H 2 10:54:41.00 1499.893 00:09:58 Yes
132 Bieche-Stevenson - CA 7389-AU17-BIEC BB C 1 10:54:42.00 1499.787 00:09:59 Yes
133 Arendonk West - CA 26821-AU17-AA BB H 1 10:54:43.00 1499.680 00:10:00 Yes
134 Doug Donner - CO 13433-AU17-ARPU BCWF H 1 10:54:45.00 1499.468 00:10:02 Yes
135 Almosta Loft - WA 47996-AU17-AA BB C 2 10:54:48.00 1499.148 00:10:05 Yes
136 Zuber Loft - CT 0192-AU17-NRA BC C 1 10:54:54.00 1498.510 00:10:11 Yes
136 Spring Break Race - UT 11350-US17-IPB BB C 2 10:54:54.00 1498.510 00:10:11 Yes
138 Powerstroke Loft - UT 0181-IF17-PS BB C 3 10:55:01.00 1497.766 00:10:18 Yes
139 Baldwin & Tilson - NC 7172-AU17-TENT PNSP H 5 10:55:03.00 1497.554 00:10:20 Yes
139 Rich Fox Loft - PA 0827-IF17-LVC BC C 3 10:55:03.00 1497.554 00:10:20 Yes
141 Flyhome Loft - CA 26380-AU17-ARPU BC H 1 10:55:06.00 1497.235 00:10:23 Yes
142 Marian Taloi - OR 0247-AU17-OTC Long Distance & Slow DCGZ H 3 10:55:16.00 1496.175 00:10:33 Yes
143 Venn Family Loft - WY 87144-AU17-ARPU BB H 1 10:55:26.00 1495.115 00:10:43 Yes
144 Ed Kehl - UT 0387-AU17-WFA DCBK C 4 10:55:30.00 1494.692 00:10:47 Yes
145 Ganus Family Loft - IN 0909-AU17-GFL BB C 2 10:55:35.00 1494.163 00:10:52 Yes
146 Hammon And Friends - AZ 0594-AU17-DWI BB C 5 10:55:37.00 1493.952 00:10:54 Yes
147 Bert Bruno - UT 36375-AU17-JEDD BLK C 3 10:55:39.00 1493.741 00:10:56 Yes
148 Michael Kelly - CA 1737-AU17-ARC DC H 2 10:55:44.00 1493.213 00:11:01 Yes
149 Michael Kelly - CA 1736-AU17-ARC BC C 3 10:55:48.00 1492.791 00:11:05 Yes
149 Warbird Loft - CO 7326-AU17-FH 2wxkan BB H 10 10:55:48.00 1492.791 00:11:05 Yes
151 Ed Kehl - UT 0392-AU17-WFA GRZ H 5 10:55:54.00 1492.158 00:11:11 Yes
152 Hammon And Friends - AZ 0598-AU17-DWI BB C 6 10:56:12.00 1490.262 00:11:29 Yes
153 Ed Kehl - UT 0987-AU17-WFA BB C 6 10:57:22.00 1482.938 00:12:39 Yes
154 Mike Beam - KS 8568-AU17-VK BC H 1 10:57:30.00 1482.105 00:12:47 Yes
155 Haack Loft - CA 2786-AU17-JEDD MLY C 4 10:57:34.00 1481.689 00:12:51 Yes
156 Fly & Criddle - ID 6653-AU17-FOYS 1697/238 BC H 1 10:57:35.00 1481.585 00:12:52 Yes
157 D & L Lofts - BC 1106-CU17-MTNP BB C 1 10:57:36.00 1481.481 00:12:53 Yes
157 3 Stars & A Sun Loft - TX 0023-AU17-3SS BB C 1 10:57:36.00 1481.481 00:12:53 Yes
159 A-Lin Loft - ME 0914-AU17-NEC BB C 2 10:57:40.00 1481.066 00:12:57 Yes
160 El Dorado Lofts Canada - BC 1198-CU17-MTNP BC C 1 10:57:41.00 1480.962 00:12:58 Yes
161 A-Lin Loft - ME 14872-US17-IPB BCSP H 3 10:57:42.00 1480.858 00:12:59 Yes
162 Rory Smith - UT 7373-AU17-CDR BC H 3 10:57:43.00 1480.754 00:13:00 Yes
163 Mario Rodriguez - AZ 15904-AU17-ARPU BCWF C 1 10:57:44.00 1480.651 00:13:01 Yes
163 Scott/Carol Team - UT 0358-AU17-DWI BB H 3 10:57:44.00 1480.651 00:13:01 Yes
165 Powerstroke Loft - UT 0177-IF17-PS BC C 4 10:57:45.00 1480.547 00:13:02 Yes
166 Adirondack Team - NY 12996-AU17-AA BCPD H 2 10:57:46.00 1480.443 00:13:03 Yes
167 Pigeon Village - ID 1222-AU17-IDA BC H 3 10:57:47.00 1480.339 00:13:04 Yes
167 Chick Clayton - ID 0731-AU17-IDA BB H 1 10:57:47.00 1480.339 00:13:04 Yes
167 Almosta Loft - WA 47995-AU17-AA BB C 3 10:57:47.00 1480.339 00:13:04 Yes
170 P N W Challenge - ID 7097-AU17-PNWC “91150-24991” BC C 3 10:57:49.00 1480.132 00:13:06 Yes
171 Rangel/Flores/Fregos - UT 0170-AU17-WFA DCWF H 2 10:57:50.00 1480.028 00:13:07 Yes
172 Michael Kelly - CA 1735-AU17-ARC BB H 4 10:57:52.00 1479.821 00:13:09 Yes
173 Ed Kehl - UT 0400-AU17-WFA BCWF H 7 10:57:54.00 1479.613 00:13:11 Yes
174 Ganus Family Loft - IN 0937-AU17-GFL BC H 3 10:57:55.00 1479.510 00:13:12 Yes
175 Danny Lum - HI 7755-AU17-HIC BB H 1 10:57:57.00 1479.302 00:13:14 Yes
175 Ganus Family Loft - IN 0933-AU17-GFL BB C 4 10:57:57.00 1479.302 00:13:14 Yes
177 P N W Challenge - ID 7098-AU17-PNWC “501-Z449” BB C 4 10:57:58.00 1479.199 00:13:15 Yes
177 F & D Lofts - AB 17253-AU17-FD BC H 2 10:57:58.00 1479.199 00:13:15 Yes
179 El Dorado Lofts Canada - BC 1196-CU17-MTNP RC C 2 10:58:00.00 1478.992 00:13:17 Yes
179 Mario Rodriguez - AZ 15907-AU17-ARPU BC H 2 10:58:00.00 1478.992 00:13:17 Yes
181 D & L Lofts - BC 1109-CU17-MTNP BBPN C 2 10:58:04.00 1478.577 00:13:21 Yes
181 Slick Hills Loft - UT 46136-AU17-ARPU BCWF C 5 10:58:04.00 1478.577 00:13:21 Yes
183 Almosta Loft - WA 1661-AU17-CHI BB C 4 10:58:06.00 1478.370 00:13:23 Yes
184 Rangel/Flores/Fregos - UT 0176-AU17-WFA DCWF H 3 10:58:08.00 1478.163 00:13:25 Yes
185 Dave Naylor - BC 1110-CU17-MTNP BBPN C 3 10:58:09.00 1478.060 00:13:26 Yes
186 Utaz Boys/ Jones - UT 1159-AU17-SLI BC H 1 10:58:16.00 1477.336 00:13:33 Yes
187 Pelican Loft - ID 1783-AU17-PEL BB C 3 10:58:21.00 1476.820 00:13:38 Yes
187 Jones Boys - UT 1180-AU17-SLI BB C 3 10:58:21.00 1476.820 00:13:38 Yes
189 Twin Loft & Joe - MD 71563-IF17-BWI BC H 1 10:58:33.00 1475.582 00:13:50 Yes
190 Bert Bruno - UT 11464-IF17-FOYS BC H 4 10:58:47.00 1474.140 00:14:04 Yes
191 Hollywood Lou Loft - FL 0153-AU17-HL BB C 2 10:58:48.00 1474.037 00:14:05 Yes
192 Roberts Family Loft - MA 0178-IF17-NWC Barbaro BC H 2 10:59:09.00 1471.880 00:14:26 Yes
193 A-Lin Loft - ME 14874-US17-IPB BC C 4 10:59:11.00 1471.674 00:14:28 Yes
194 Joe Zarachowicz - MD 2245-IF17-CCC SLT C 4 10:59:26.00 1470.138 00:14:43 Yes
195 Racing Pigeon Mall - WA 0726-AU17-RPM BB C 5 10:59:31.00 1469.626 00:14:48 Yes
196 Papas Loft - ID 20334-AU17-ARPU BB H 5 11:01:33.00 1457.255 00:16:50 Yes
197 Arendonk West - CA 26803-AU17-AA BB H 2 11:01:35.00 1457.054 00:16:52 Yes
198 Ed Kehl - UT 0383-AU17-WFA BB C 8 11:01:39.00 1456.652 00:16:56 Yes
199 Bert Bruno - UT 79331-AU17-ARPU BCWF C 5 11:01:44.00 1456.150 00:17:01 Yes

There are 492 bird records

Note: These Race Results are unofficial and subject to change until verified by the Race Committee and declared final.

Click for forecast!